Location: Unspecified
(0.0000°N, 0.0000°E)
Time: 15:23:44
(UTC+00:00)

Envisat - Pass Details

Date: 18 September 2020
Orbit: 764 x 766 km, 98.1° (Epoch: 19 September)

Event Time Altitude Azimuth Distance (km) Brightness Sun altitude
Rises 04:42:11 0° 43° (NE) 3,216 6.9 -18.0°
Reaches altitude 10° 04:45:18 10° 64° (ENE) 2,294 6.5 -17.2°
Maximum altitude 04:48:26 17° 103° (ESE) 1,878 6.1 -16.4°
Drops below altitude 10° 04:51:35 10° 141° (SE) 2,301 6.0 -15.6°
Sets 04:54:41 0° 161° (SSE) 3,230 6.5 -14.8°
